Location: Phoenix
(33.4480°N, 112.0730°W)
Time: 12:27:17
(UTC-07:00)

Cosmos 1470 Rocket - Visible Passes

Search period start: 27 May 2018 00:00
Search period end: 06 June 2018 00:00
Orbit: 605 x 633 km, 82.5° (Epoch: 27 May)

Date Brightness Start Highest point End Pass type
(mag) Time Alt. Az. Time Alt. Az. Time Alt. Az.
27 May 6.6 03:40:15 10° E 03:41:26 11° E 03:42:37 10° ENE visible
28 May 6.0 03:55:07 10° SE 03:58:29 22° E 04:01:54 10° NE visible
29 May 4.8 04:11:28 10° SSE 04:15:38 43° E 04:19:51 10° NNE visible
30 May 3.6 04:28:27 10° S 04:32:52 89° E 04:37:21 10° N visible
31 May 6.5 03:11:16 10° ESE 03:12:50 12° E 03:14:25 10° ENE visible
31 May 4.0 04:45:58 10° SSW 04:50:11 45° W 04:54:29 10° N visible
01 Jun 5.8 03:26:25 10° SE 03:29:54 23° E 03:33:25 10° NE visible
02 Jun 4.6 03:42:49 10° SSE 03:47:03 45° E 03:51:19 10° NNE visible
03 Jun 3.5 04:00:29 14° S 04:04:17 87° W 04:08:47 10° N visible
04 Jun 6.3 02:42:22 10° ESE 02:44:14 12° E 02:46:07 10° ENE visible
04 Jun 4.1 04:18:08 14° SSW 04:21:38 42° W 04:25:53 10° N visible
05 Jun 5.6 02:58:36 14° SE 03:01:19 24° E 03:04:56 10° NE visible
05 Jun 5.0 04:35:45 11° SW 04:39:03 22° WNW 04:42:32 10° NNW visible
